K8POS Weather Reports


time (UTC)temp
F
wind
direction
speed
knots
gust
knots
rain 1hr
in
rain 24hr
in
rain mn
in
humidity
%
barometer
mb
20260509043007 48 118 0.9 2.6 0.00 0.01 0.00 84 1006.1
20260509040035 49 128 1.7 3.5 0.00 0.01 0.00 84 1006.3
20260509034504 49 121 1.7 4.3 0.00 0.01 0.01 84 1006.4
20260509033006 50 118 1.7 7.0 0.00 0.01 0.01 84 1006.5
20260509030007 50 121 1.7 3.5 0.00 0.01 0.01 84 1006.7
20260509024505 51 128 1.7 3.5 0.00 0.01 0.01 84 1006.9
20260509020008 52 151 0.9 1.7 0.00 0.01 0.01 80 1006.9
20260509014504 53 151 0.9 1.7 0.00 0.01 0.01 77 1006.8
20260509013007 53 151 0.9 2.6 0.00 0.01 0.01 74 1006.7
20260509011505 54 151 0.9 2.6 0.00 0.01 0.01 70 1006.5
20260509010008 55 150 0.9 1.7 0.00 0.01 0.01 66 1006.4
20260509004504 56 150 1.7 2.6 0.00 0.01 0.01 65 1006.3
20260509001504 58 145 0.9 4.3 0.00 0.01 0.01 58 1006.2
20260509000008 59 137 0.9 2.6 0.00 0.01 0.01 57 1006.2
20260508234504 60 140 1.7 4.3 0.00 0.01 0.01 54 1006.1
20260508233007 62 147 1.7 7.0 0.00 0.01 0.01 51 1006.3
20260508231505 62 146 1.7 7.8 0.00 0.01 0.01 49 1006.2
20260508230007 64 172 1.7 6.1 0.00 0.01 0.01 45 1006.3
20260508224504 64 226 3.5 7.8 0.00 0.01 0.01 37 1006.3
20260508223007 63 253 3.5 11.3 0.00 0.01 0.01 35 1006.2
20260508221505 63 243 3.5 10.4 0.00 0.01 0.01 37 1006.3
20260508220008 63 244 5.2 11.3 0.00 0.01 0.01 34 1006.5
20260508214504 63 229 3.5 12.2 0.00 0.01 0.01 36 1006.5
20260508213006 64 220 2.6 8.7 0.00 0.01 0.01 37 1006.5
20260508211504 63 227 3.5 12.2 0.00 0.01 0.01 36 1006.6
20260508210008 64 207 2.6 5.2 0.00 0.01 0.01 37 1006.7
20260508204504 63 241 4.3 9.6 0.00 0.01 0.01 39 1006.8
20260508203006 62 232 4.3 8.7 0.00 0.01 0.01 34 1007.0
20260508201504 63 214 4.3 11.3 0.00 0.01 0.01 34 1007.2
20260508200007 62 213 4.3 9.6 0.00 0.01 0.01 35 1007.5
20260508194504 62 245 4.3 10.4 0.00 0.01 0.01 37 1007.7
20260508193006 62 229 3.5 14.8 0.00 0.01 0.01 34 1007.9
20260508191505 62 243 2.6 10.4 0.00 0.01 0.01 35 1008.0
20260508183008 62 195 1.7 7.8 0.00 0.01 0.01 31 1008.5
20260508181505 60 251 3.5 7.0 0.00 0.01 0.01 37 1008.8
20260508180008 60 238 2.6 8.7 0.00 0.01 0.01 35 1009.0
20260508173008 59 238 4.3 11.3 0.00 0.01 0.01 37 1009.5
20260508171504 60 222 2.6 7.0 0.00 0.01 0.01 40 1009.6
20260508170007 59 218 3.5 7.8 0.00 0.01 0.01 42 1010.0
20260508164505 57 258 3.5 8.7 0.00 0.01 0.01 39 1010.2
20260508163007 58 223 1.7 4.3 0.00 0.01 0.01 40 1010.2
20260508161504 57 260 2.6 6.1 0.00 0.01 0.01 39 1010.2
20260508160007 57 329 3.5 7.0 0.00 0.01 0.01 47 1010.4
20260508154504 55 264 2.6 8.7 0.00 0.01 0.01 45 1010.6
20260508153007 56 231 2.6 7.8 0.00 0.01 0.01 49 1010.6
20260508151504 55 244 3.5 7.0 0.00 0.01 0.01 53 1010.8
20260508150007 54 259 2.6 7.8 0.00 0.01 0.01 51 1010.8
20260508144504 54 228 2.6 6.1 0.00 0.01 0.01 51 1010.9
20260508143008 53 236 2.6 7.8 0.00 0.01 0.01 59 1011.0
20260508141505 53 226 1.7 6.1 0.00 0.01 0.01 58 1011.1
20260508140010 52 236 0.9 4.3 0.00 0.01 0.01 58 1011.1
20260508134505 51 252 1.7 4.3 0.00 0.01 0.01 61 1011.1
20260508133007 50 248 1.7 4.3 0.00 0.01 0.01 62 1011.2
20260508131505 49 260 1.7 6.1 0.00 0.01 0.01 65 1011.3
20260508130007 48 263 1.7 5.2 0.00 0.01 0.01 69 1011.3
20260508124504 47 265 1.7 3.5 0.00 0.01 0.01 74 1011.1
20260508123008 46 266 0.9 5.2 0.00 0.01 0.01 79 1011.0
20260508121505 45 228 0.0 2.6 0.00 0.01 0.01 83 1010.9
20260508120008 44 228 0.0 1.7 0.00 0.01 0.01 84 1010.9
20260508114504 42 228 0.0 0.9 0.01 0.01 0.01 83 1010.7
20260508113007 41 228 0.0 1.7 0.01 0.01 0.01 83 1010.6
20260508111505 39 226 0.0 1.7 0.01 0.01 0.01 84 1010.5
20260508110008 38 226 0.0 0.9 0.01 0.01 0.01 84 1010.5
20260508103008 37 0 0.0 0.0 0.00 0.00 0.00 85 1010.4
20260508101504 37 0 0.0 0.0 0.00 0.00 0.00 85 1010.5
20260508100008 38 0 0.0 0.0 0.00 0.00 0.00 86 1010.5
20260508093007 40 0 0.0 0.0 0.00 0.00 0.00 86 1010.7
20260508091504 40 0 0.0 0.0 0.00 0.00 0.00 86 1010.7
20260508083008 42 0 0.0 0.0 0.00 0.00 0.00 85 1010.6
20260508081505 42 0 0.0 0.0 0.00 0.00 0.00 85 1010.6
20260508080009 42 226 0.0 1.7 0.00 0.00 0.00 85 1010.5
20260508074504 43 226 0.0 1.7 0.00 0.00 0.00 84 1010.5
20260508071504 43 222 1.7 7.8 0.00 0.00 0.00 83 1010.6
20260508064505 43 230 1.7 3.5 0.00 0.00 0.00 83 1010.7
20260508063006 43 298 0.0 1.7 0.00 0.00 0.00 84 1010.8
20260508061504 43 298 0.0 1.7 0.00 0.00 0.00 84 1011.1
20260508060007 43 298 0.0 0.9 0.00 0.00 0.00 85 1011.1
20260508054504 42 0 0.0 0.0 0.00 0.00 0.00 84 1011.2
20260508053007 42 298 0.0 1.7 0.00 0.00 0.00 84 1011.4
20260508051504 42 0 0.0 0.0 0.00 0.00 0.00 84 1011.4
20260508050007 43 0 0.0 0.0 0.00 0.00 0.00 85 1011.5